Main page
METAR-TAF:

METAR-TAF

Airports :

Ramsar, Iran

Ramsar International Airport

latitude: 36-54N, longitude: 050-40E, elevation: -23 m

Current weather observation

The report was made 46 minutes ago, at 09:00 UTC
Wind 6 kt from the East
Temperature 21°C
Humidity 69%
Pressure 1010 hPa
Visibility 10 km or more
Few clouds at a height of 2500 ft

METAR: OINR 220900Z 09006KT 9999 FEW025 21/15 Q1010

Time: 13:16 (09:46 UTC)


TAF: missing

Weather observations and forecasts of more than 4000 airports (METAR and TAF reports).

The available stations are represented by yellow and red dots on the map.

Hover mouse over dot to see the name of the station.

Then click to see weather observations and forecasts.

To change the map : click on the green buttons with a black cross to zoom in, on the green button with a dash to zoom out, or on the green arrows for adjacent maps.


METAR-TAF: